Flag for Canada Weather past 2 weeks in Happy Valley-Goose Bay, Newfoundland and Labrador, Canada

Now
30 °F

Overcast.


Feels Like: 27 °F
Forecast: 25 / 32 °F
Wind: 3 mph from Northeast

Location: Goose

Current Time: Apr 1, 2015 at 12:59:23 AM

Latest Report: Apr 1, 2015 at 12:00 AM


Visibility: 15 mi

Pressure: 29.47 "Hg

Humidity: 69%

Dew point: 21 °F

Location of Happy Valley-Goose BayLocation

Historic Weather in Happy Valley-Goose Bay — Graph

°F

Happy Valley-Goose Bay temperature yesterday

Maximum temperature yesterday: 37 °F (at 4:00 PM)
Minimum temperature yesterday: 28 °F (at 4:00 AM)
Average temperature yesterday: 33 °F

Past Weeks' High & Low Weather Summary

 TemperatureHumidityPressure
High43 °F (Mar 21, 4:00 PM)86% (Mar 23, 9:00 AM)30.08 "Hg (Mar 23, 9:00 AM)
Low-11 °F (Mar 17, 7:00 AM)30% (Mar 28, 7:00 PM)28.88 "Hg (Mar 23, 4:00 AM)
Average20 °F55%29.67 "Hg
* Reported Midnight between Mar 16 and Mar 17 — Midnight between Mar 31 and Apr 1, Happy Valley-Goose Bay, Weather by CustomWeather, © 2015

Note: Actual official high and low records may vary slightly from our data, if they occured in-between our weather recording intervals... More about our weather records

Advertising

Happy Valley-Goose Bay weather history for previous 24 hours

 ConditionsComfort  
Time TempWeatherWind HumidityBarometerVisibility
12:00 AM
Wed, Apr 1
30 °FOvercast.3 mph69%29.47 "Hg15 mi
11:00 PM
Tue, Mar 31
32 °FPassing clouds.6 mph64%29.48 "Hg15 mi
10:00 PM32 °FPassing clouds.5 mph64%29.48 "Hg15 mi
9:00 PM34 °FPassing clouds.6 mph60%29.48 "Hg15 mi
8:00 PM34 °FPartly sunny.2 mph60%29.47 "Hg15 mi
7:00 PM36 °FPartly sunny.7 mph56%29.48 "Hg15 mi
6:00 PM37 °FOvercast.7 mph48%29.48 "Hg15 mi
5:00 PM37 °FOvercast.7 mph48%29.47 "Hg15 mi
4:00 PM37 °FPartly sunny.7 mph48%29.47 "Hg15 mi
3:00 PM36 °FMostly cloudy.9 mph56%29.48 "Hg15 mi
2:00 PM36 °FMostly cloudy.14 mph52%29.49 "Hg15 mi
1:00 PM36 °FMostly cloudy.14 mph48%29.52 "Hg15 mi
12:00 PM36 °FMostly cloudy.10 mph52%29.53 "Hg15 mi
11:00 AM32 °FMostly cloudy.12 mph60%29.55 "Hg15 mi
10:00 AM30 °FMostly cloudy.14 mph64%29.56 "Hg15 mi
9:00 AM28 °FSnow flurries. Mostly cloudy.9 mph64%29.57 "Hg8 mi
8:00 AM28 °FSnow flurries. Cloudy.10 mph64%29.57 "Hg15 mi
7:00 AM28 °FSnow flurries. Mostly cloudy.7 mph64%29.57 "Hg12 mi
6:00 AM28 °FSnow flurries. Mostly cloudy.10 mph64%29.57 "Hg15 mi
5:00 AM28 °FSnow flurries. Mostly cloudy.13 mph64%29.58 "Hg10 mi
4:00 AM28 °FMostly cloudy.12 mph64%29.58 "Hg15 mi
3:00 AM30 °FMostly cloudy.14 mph55%29.59 "Hg15 mi
2:00 AM32 °FPassing clouds.15 mph55%29.59 "Hg15 mi
1:00 AM32 °FPassing clouds.12 mph55%29.60 "Hg15 mi
12:00 AM32 °FPartly cloudy.7 mph47%29.61 "Hg15 mi
Weather by CustomWeather, © 2015

See weather overviewHow to use our weather pages